When you browse on this site, cookies collect data to enhance your experience and personalize the content and advertising you see.
Visit our Privacy Policy to learn more. By continuing to use the site, you agree to this use of cookies and data.
  • en Belgique
  • Liste des pays
  • À 7 jours
  • Température de l'eau
  • Carte satellitaire
  • Carte météo
  • Widgets météo
  • user-avatar
    Se connecter

    Météo par heure à Zaharovo

    Ce jour, 27 Mai, Lundi

    Heure Température Précipitation Vent Pression Humidité
    00:00 +9°C° 0 mm 3 m/s 733 mmHg 86%
    01:00 +9°C° 0 mm 3 m/s 733 mmHg 88%
    02:00 +8°C° 0 mm 3 m/s 733 mmHg 90%
    03:00 +8°C° 0 mm 3 m/s 733 mmHg 89%
    04:00 +8°C° 0 mm 4 m/s 733 mmHg 87%
    05:00 +8°C° 0 mm 4 m/s 733 mmHg 86%
    06:00 +10°C° 0.1 mm 4 m/s 734 mmHg 84%
    07:00 +10°C° 0.1 mm 4 m/s 734 mmHg 83%
    08:00 +11°C° 0.1 mm 4 m/s 734 mmHg 81%
    09:00 +12°C° 0.2 mm 4 m/s 734 mmHg 80%
    10:00 +13°C° 0.2 mm 4 m/s 734 mmHg 79%
    11:00 +13°C° 0.2 mm 4 m/s 735 mmHg 78%
    12:00 +15°C° 0.1 mm 5 m/s 735 mmHg 73%
    13:00 +16°C° 0.1 mm 5 m/s 735 mmHg 69%
    14:00 +17°C° 0.1 mm 5 m/s 735 mmHg 64%
    15:00 +17°C° 0 mm 5 m/s 735 mmHg 67%
    16:00 +17°C° 0 mm 4 m/s 735 mmHg 70%
    17:00 +17°C° 0 mm 4 m/s 735 mmHg 73%
    18:00 +17°C° 0.5 mm 4 m/s 735 mmHg 80%
    19:00 +16°C° 0.5 mm 3 m/s 735 mmHg 87%
    20:00 +14°C° 0.5 mm 3 m/s 735 mmHg 94%
    21:00 +14°C° 0.1 mm 3 m/s 735 mmHg 95%
    22:00 +14°C° 0.1 mm 3 m/s 735 mmHg 95%
    23:00 +13°C° 0.1 mm 3 m/s 736 mmHg 96%

    Demain, 28 Mai, Mardi

    Heure Température Précipitation Vent Pression Humidité
    00:00 +13°C° 0 mm 3 m/s 736 mmHg 96%
    01:00 +14°C° 0 mm 2 m/s 736 mmHg 97%
    02:00 +13°C° 0 mm 2 m/s 737 mmHg 97%
    03:00 +13°C° 0 mm 2 m/s 737 mmHg 97%
    04:00 +13°C° 0 mm 2 m/s 737 mmHg 97%
    05:00 +14°C° 0 mm 2 m/s 738 mmHg 97%
    06:00 +15°C° 0 mm 2 m/s 738 mmHg 92%
    07:00 +17°C° 0 mm 2 m/s 738 mmHg 87%
    08:00 +18°C° 0 mm 2 m/s 739 mmHg 82%
    09:00 +20°C° 0.1 mm 3 m/s 739 mmHg 74%
    10:00 +22°C° 0.1 mm 3 m/s 739 mmHg 65%
    11:00 +24°C° 0.1 mm 3 m/s 739 mmHg 57%
    12:00 +25°C° 0.1 mm 4 m/s 739 mmHg 56%
    13:00 +25°C° 0.1 mm 4 m/s 739 mmHg 55%
    14:00 +26°C° 0.1 mm 4 m/s 739 mmHg 55%
    15:00 +25°C° 0.4 mm 4 m/s 738 mmHg 63%
    16:00 +24°C° 0.4 mm 3 m/s 738 mmHg 72%
    17:00 +22°C° 0.4 mm 3 m/s 738 mmHg 80%
    18:00 +21°C° 0.1 mm 3 m/s 738 mmHg 83%
    19:00 +20°C° 0.1 mm 3 m/s 737 mmHg 86%
    20:00 +19°C° 0.1 mm 3 m/s 737 mmHg 88%
    21:00 +19°C° 0.1 mm 3 m/s 737 mmHg 89%
    22:00 +18°C° 0.1 mm 4 m/s 737 mmHg 89%
    23:00 +18°C° 0.1 mm 4 m/s 738 mmHg 89%

    Après-demain, 29 Mai, Mercredi

    Heure Température Précipitation Vent Pression Humidité
    00:00 +17°C° 0.1 mm 4 m/s 738 mmHg 90%
    01:00 +17°C° 0.1 mm 4 m/s 738 mmHg 90%
    02:00 +17°C° 0.1 mm 4 m/s 738 mmHg 91%
    03:00 +17°C° 0 mm 4 m/s 738 mmHg 91%
    04:00 +18°C° 0 mm 4 m/s 738 mmHg 90%
    05:00 +18°C° 0 mm 4 m/s 738 mmHg 90%
    06:00 +20°C° 0 mm 4 m/s 738 mmHg 81%
    07:00 +21°C° 0 mm 5 m/s 738 mmHg 72%
    08:00 +23°C° 0 mm 5 m/s 738 mmHg 64%
    09:00 +24°C° 0 mm 6 m/s 738 mmHg 58%
    10:00 +26°C° 0 mm 6 m/s 738 mmHg 53%
    11:00 +27°C° 0 mm 6 m/s 738 mmHg 48%
    12:00 +28°C° 0 mm 6 m/s 738 mmHg 45%
    13:00 +28°C° 0 mm 6 m/s 739 mmHg 43%
    14:00 +28°C° 0 mm 6 m/s 739 mmHg 40%
    15:00 +27°C° 0 mm 6 m/s 738 mmHg 45%
    16:00 +26°C° 0 mm 5 m/s 738 mmHg 50%
    17:00 +25°C° 0 mm 4 m/s 738 mmHg 55%
    18:00 +23°C° 0.1 mm 4 m/s 739 mmHg 63%
    19:00 +21°C° 0.1 mm 3 m/s 739 mmHg 71%
    20:00 +20°C° 0.1 mm 3 m/s 739 mmHg 79%
    21:00 +19°C° 0.8 mm 2 m/s 739 mmHg 85%
    22:00 +18°C° 0.8 mm 2 m/s 740 mmHg 90%
    23:00 +18°C° 0.8 mm 2 m/s 740 mmHg 95%

    30 Mai, Jeudi

    Heure Température Précipitation Vent Pression Humidité
    00:00 +17°C° 0.2 mm 2 m/s 740 mmHg 96%
    01:00 +17°C° 0.2 mm 2 m/s 740 mmHg 96%
    02:00 +17°C° 0.2 mm 2 m/s 740 mmHg 96%
    03:00 +17°C° 1.6 mm 2 m/s 741 mmHg 97%
    04:00 +17°C° 1.6 mm 2 m/s 741 mmHg 97%
    05:00 +17°C° 1.6 mm 2 m/s 741 mmHg 98%
    06:00 +18°C° 0.7 mm 2 m/s 741 mmHg 95%
    07:00 +19°C° 0.7 mm 2 m/s 741 mmHg 92%
    08:00 +19°C° 0.7 mm 2 m/s 742 mmHg 89%
    09:00 +19°C° 0.4 mm 2 m/s 742 mmHg 89%
    10:00 +19°C° 0.4 mm 2 m/s 742 mmHg 88%
    11:00 +19°C° 0.4 mm 2 m/s 742 mmHg 87%
    12:00 +19°C° 0.2 mm 2 m/s 742 mmHg 86%
    13:00 +19°C° 0.2 mm 2 m/s 742 mmHg 84%
    14:00 +20°C° 0.2 mm 2 m/s 742 mmHg 83%
    15:00 +21°C° 0.1 mm 1 m/s 742 mmHg 82%
    16:00 +21°C° 0.1 mm 1 m/s 742 mmHg 81%
    17:00 +21°C° 0.1 mm 1 m/s 742 mmHg 79%
    18:00 +20°C° 0 mm 1 m/s 742 mmHg 82%
    19:00 +19°C° 0 mm 1 m/s 742 mmHg 86%
    20:00 +19°C° 0 mm 1 m/s 742 mmHg 89%
    21:00 +18°C° 0 mm 1 m/s 743 mmHg 90%
    22:00 +16°C° 0 mm 1 m/s 743 mmHg 92%
    23:00 +15°C° 0 mm 1 m/s 743 mmHg 93%

    31 Mai, Vendredi

    Heure Température Précipitation Vent Pression Humidité
    00:00 +15°C° 0 mm 1 m/s 743 mmHg 94%
    01:00 +14°C° 0 mm 1 m/s 743 mmHg 95%
    02:00 +13°C° 0 mm 1 m/s 743 mmHg 95%
    03:00 +13°C° 0 mm 1 m/s 743 mmHg 93%
    04:00 +14°C° 0 mm 1 m/s 743 mmHg 90%
    05:00 +14°C° 0 mm 1 m/s 743 mmHg 87%
    06:00 +16°C° 0 mm 1 m/s 743 mmHg 79%
    07:00 +19°C° 0 mm 1 m/s 743 mmHg 72%
    08:00 +21°C° 0 mm 1 m/s 743 mmHg 64%
    09:00 +23°C° 0 mm 1 m/s 743 mmHg 61%
    10:00 +23°C° 0 mm 0 m/s 743 mmHg 57%
    11:00 +25°C° 0 mm 0 m/s 743 mmHg 54%
    12:00 +25°C° 0 mm 0 m/s 742 mmHg 55%
    13:00 +24°C° 0 mm 0 m/s 742 mmHg 57%
    14:00 +26°C° 0 mm 1 m/s 742 mmHg 58%
    15:00 +26°C° 0 mm 1 m/s 742 mmHg 61%
    16:00 +25°C° 0 mm 1 m/s 742 mmHg 64%
    17:00 +25°C° 0 mm 1 m/s 742 mmHg 66%
    18:00 +22°C° 0.1 mm 0 m/s 741 mmHg 73%
    19:00 +20°C° 0.1 mm 0 m/s 741 mmHg 79%
    20:00 +19°C° 0.1 mm 0 m/s 741 mmHg 86%
    21:00 +18°C° 0.3 mm 0 m/s 741 mmHg 89%
    22:00 +20°C° 0.3 mm 1 m/s 741 mmHg 92%
    23:00 +19°C° 0.3 mm 1 m/s 741 mmHg 95%

    1 Juin, Samedi

    Heure Température Précipitation Vent Pression Humidité
    00:00 +19°C° 0.4 mm 1 m/s 741 mmHg 96%
    01:00 +19°C° 0.4 mm 1 m/s 741 mmHg 96%
    02:00 +18°C° 0.4 mm 1 m/s 741 mmHg 97%
    03:00 +19°C° 0.1 mm 1 m/s 741 mmHg 97%
    04:00 +19°C° 0.1 mm 1 m/s 741 mmHg 97%
    05:00 +19°C° 0.1 mm 1 m/s 740 mmHg 96%
    06:00 +20°C° 0.1 mm 1 m/s 740 mmHg 94%
    07:00 +20°C° 0.1 mm 2 m/s 740 mmHg 92%
    08:00 +21°C° 0.1 mm 2 m/s 740 mmHg 89%
    09:00 +23°C° 0.8 mm 2 m/s 740 mmHg 83%
    10:00 +24°C° 0.8 mm 2 m/s 740 mmHg 77%
    11:00 +25°C° 0.8 mm 3 m/s 740 mmHg 70%
    12:00 +25°C° 1.1 mm 3 m/s 740 mmHg 72%
    13:00 +25°C° 1.1 mm 3 m/s 740 mmHg 73%
    14:00 +26°C° 1.1 mm 2 m/s 740 mmHg 74%
    15:00 +24°C° 1.4 mm 2 m/s 740 mmHg 79%
    16:00 +23°C° 1.4 mm 2 m/s 740 mmHg 84%
    17:00 +22°C° 1.4 mm 1 m/s 740 mmHg 88%
    18:00 +20°C° 0.4 mm 2 m/s 740 mmHg 91%
    19:00 +18°C° 0.4 mm 2 m/s 741 mmHg 93%
    20:00 +17°C° 0.4 mm 3 m/s 741 mmHg 95%
    21:00 +16°C° 0.1 mm 3 m/s 742 mmHg 94%
    22:00 +13°C° 0.1 mm 3 m/s 742 mmHg 93%
    23:00 +12°C° 0.1 mm 4 m/s 743 mmHg 92%
    Voir plus